Torna al catalogo

SL-14 R/B

AttivoPO
NORAD 20511·ROCKET BODY·🇷🇺 Russia

Lanciato Feb 28, 1990 da Plesetsk Cosmodrome

Loading…

Prossimi Passaggi (prossime 24 ore)

TLE

AggiornatoSource: Space-Track

Epoca: Sep 14, 2026, 09:22 UTC

1 20511U 90018B   26257.39066452  .00000303  00000-0  34918-4 0  9999
2 20511  82.5205  46.7039 0015885 186.1013 174.0010 14.82263175950533

Traccia SL-14 R/B in tempo reale con AllMySat

Download on the App Store